This demonstration page uses our WeatherBlox Daily Observations layout. Learn more.

Left ArrowRight Arrow

34.16533, -84.80231

Hourly Observations for February 16, 2015

Temp ( °F °C ) Dew Point ( °F °C ) Humidity (%) Winds ( mph kmh ) Pressure ( in mb ) Visibility ( mi km ) Precip ( " mm )
12:53 am 00:53 Cloudy 30 -1.1 2 -16.7 30 30 Calm 30.24 1024 10 16 0.00 0.00
1:53 am 01:53 Cloudy 30 -1.1 3 -16.1 31 31 Calm 30.25 1024 10 16 0.00 0.00
2:53 am 02:53 Cloudy 30 -1.1 5 -15 34 34 ESE 3 6 30.21 1023 10 16 0.00 0.00
3:53 am 03:53 Cloudy 32 0 6 -14.4 33 33 E 6 9 30.16 1021 10 16 0.00 0.00
4:53 am 04:53 Clear 32 0 7 -13.9 35 35 E 6 9 30.14 1021 10 16 0.00 0.00
5:53 am 05:53 Cloudy 35 1.7 8 -13.3 32 32 VRB 5 7 30.13 1020 10 16 0.00 0.00
6:53 am 06:53 Cloudy 35 1.7 11 -11.7 37 37 ESE 8 13 30.12 1020 10 16 0.00 0.00
7:53 am 07:53 Cloudy 36 2.2 14 -10 40 40 E 8 13 30.11 1020 10 16 0.00 0.00
8:53 am 08:53 Cloudy 37 2.8 17 -8.3 44 44 VRB 7 11 30.11 1020 10 16 0.00 0.00
9:53 am 09:53 Cloudy with Light Rain 38 3.3 21 -6.1 51 51 SE 9 15 30.09 1019 10 16 0.00 0.03
10:03 am 10:03 Cloudy with Light Rain 37 2.8 25 -3.9 62 62 ESE 7 11 30.12 1020 8 13 0.00 0.03
10:53 am 10:53 Cloudy with Light Rain 35 1.7 29 -1.7 78 78 VRB 5 7 30.06 1018 7 11 0.02 0.51
11:53 am 11:53 Cloudy 36 2.2 30 -1.1 79 79 VRB 6 9 30.02 1017 10 16 0.02 0.51
12:53 pm 12:53 Cloudy 39 3.9 29 -1.7 67 67 ESE 9 15 29.96 1015 10 16 0.00 0.03
1:53 pm 13:53 Cloudy 40 4.4 29 -1.7 65 65 SE 9 15 29.90 1013 10 16 0.00 0.00
2:53 pm 14:53 Cloudy with Light Rain 38 3.3 32 0 79 79 ESE 12 19 29.85 1011 4 6 0.02 0.51
3:18 pm 15:18 Cloudy with Rain 37 2.8 33 0.6 86 86 ESE 9 15 29.88 1012 3 4 0.04 1.02
3:33 pm 15:33 Cloudy with Light Rain 36 2.2 34 1.1 93 93 ESE 9 15 29.88 1012 3 5 0.06 1.52
3:53 pm 15:53 Cloudy with Light Rain 35 1.7 32 0 89 89 E 7 11 29.84 1011 3 5 0.07 1.78
4:01 pm 16:01 Cloudy with Light Rain 35 1.7 32 0 89 89 E 10 17 29.85 1011 3 5 0.01 0.25
4:10 pm 16:10 Cloudy with Light Rain 35 1.7 32 0 89 89 E 12 19 29.85 1011 2 3 0.02 0.51
4:53 pm 16:53 Cloudy with Rain 34 1.1 31 -0.6 89 89 ESE 10 17 29.83 1010 3 5 0.13 3.30
5:21 pm 17:21 Cloudy with Heavy Rain 34 1.1 31 -0.6 89 89 ESE 13 20 29.85 1011 2 3 0.08 2.03
5:38 pm 17:38 Cloudy with Rain 34 1.1 31 -0.6 89 89 ESE 12 19 29.85 1011 3 5 0.12 3.05
5:53 pm 17:53 Mostly Cloudy with Light Rain 34 1.1 31 -0.6 89 89 E 10 17 29.79 1009 3 5 0.15 3.81
6:53 pm 18:53 Cloudy with Light Rain 34 1.1 32 0 92 92 E 12 19 29.75 1007 7 11 0.04 1.02
7:30 pm 19:30 Cloudy with Rain 34 1.1 32 0 92 92 VRB 5 7 29.88 1012 3 4 0.08 2.03
7:39 pm 19:39 Cloudy with Rain 35 1.7 33 0.6 93 93 Calm 29.85 1011 3 5 0.11 2.79
7:53 pm 19:53 Cloudy with Heavy Rain 34 1.1 32 0 92 92 ESE 9 15 29.79 1009 2 3 0.22 5.59
8:00 pm 20:00 Cloudy with Heavy Rain 35 1.7 33 0.6 93 93 ENE 7 11 29.80 1009 3 4 0.04 1.02
8:08 pm 20:08 Cloudy with Light Rain 35 1.7 33 0.6 93 93 E 7 11 29.80 1009 4 6 0.06 1.52
8:53 pm 20:53 Cloudy with Heavy Rain 35 1.7 32 0 89 89 E 9 15 29.74 1007 5 8 0.14 3.56
9:31 pm 21:31 Cloudy with Rain 35 1.7 32 0 89 89 E 7 11 29.77 1008 6 10 0.05 1.27
9:53 pm 21:53 Cloudy with Light Rain 35 1.7 33 0.6 93 93 VRB 3 6 29.77 1008 10 16 0.06 1.52
10:53 pm 22:53 Cloudy with Light Rain 35 1.7 33 0.6 93 93 ESE 6 9 29.78 1008 7 11 0.08 2.03
11:05 pm 23:05 Cloudy with Rain 35 1.7 33 0.6 93 93 E 5 7 29.80 1009 5 8 0.03 0.76
11:21 pm 23:21 Cloudy with Light Rain 35 1.7 33 0.6 93 93 ESE 6 9 29.77 1008 7 11 0.06 1.52
11:48 pm 23:48 Cloudy 36 2 34 1 93 93 NNW 3 6 29.83 1010 10 16 0.06 1.52
11:53 pm 23:53 Cloudy 35 1.7 33 0.6 93 93 Calm 29.79 1009 10 16 0.06 1.52

Powered by AerisWeather